Weather History for 16170 - November, 2013

Change the Weather History Date:

Saturday, November 9, 2013

  Actual Average Record
Temperature  
Mean Temperature 63 °F -  
Max Temperature 69 °F 57 °F - ()
Min Temperature 57 °F 40 °F - ()
Degree Days  
Heating Degree Days 2    
Growing Degree Days 13 (Base 50)    
Moisture  
Dew Point 57 °F    
Average Humidity 79    
Maximum Humidity 94    
Minimum Humidity 64    
Precipitation  
Precipitation 0.00 in 0.14 in - ()
Sea Level Pressure  
Sea Level Pressure 29.92 in    
Wind  
Wind Speed 5 mph ()    
Max Wind Speed 16 mph    
Max Gust Speed 25 mph    
Visibility 6.0 miles    
Events Rain    
T = Trace of Precipitation, MM = Missing Value Source: Averaged Metar Reports

Daily Weather History Graph

Daily Weather History Graph

Search for Another Location

Airport or City:

Trip Planner

Search our weather history database for the weather conditions in past years. The results will help you decide how hot, cold, wet, or windy it might be!

Date:

Astronomy

Nov. 09, 2013 Rise Set
Actual Time 7:01 AM CET 4:55 PM CET
Civil Twilight 6:31 AM CET 5:26 PM CET
Nautical Twilight 5:56 AM CET 6:00 PM CET
Astronomical Twilight 5:23 AM CET 6:34 PM CET
Moon 12:26 PM CET (11/9) 11:08 PM CET (11/9)
Length of Visible Light 10h 55m
Length of Day
9h 53m
Waxing Crescent, 41% of the Moon is Illuminated
Nov 9
Waxing Crescent
Nov 10
First Quarter
Nov 17
Full
Nov 25
Last Quarter
Dec 3
New

Hourly Weather History & Observations

Time (CET) Temp. Dew Point Humidity Pressure Visibility Wind Dir Wind Speed Gust Speed Precip Events Conditions
12:20 AM 64.4 °F 60.8 °F 88% 29.98 in 6.2 mi East 3.5 mph - N/A   Scattered Clouds
12:50 AM 62.6 °F 59.0 °F 88% 29.95 in 6.2 mi ESE 4.6 mph - N/A   Partly Cloudy
1:20 AM 62.6 °F 59.0 °F 88% 29.95 in 6.2 mi ESE 4.6 mph - N/A   Partly Cloudy
1:50 AM 62.6 °F 59.0 °F 88% 29.95 in 6.2 mi ESE 4.6 mph - N/A   Scattered Clouds
2:20 AM 64.4 °F 60.8 °F 88% 29.95 in 6.2 mi Variable 2.3 mph - N/A   Mostly Cloudy
2:50 AM 64.4 °F 60.8 °F 88% 29.95 in 6.2 mi Variable 2.3 mph - N/A   Mostly Cloudy
3:20 AM 62.6 °F 60.8 °F 94% 29.92 in 6.2 mi SE 6.9 mph - N/A   Mostly Cloudy
3:50 AM 64.4 °F 60.8 °F 88% 29.92 in 6.2 mi SE 6.9 mph - N/A   Scattered Clouds
4:20 AM 64.4 °F 60.8 °F 88% 29.92 in 6.2 mi SE 6.9 mph - N/A   Scattered Clouds
4:50 AM 64.4 °F 60.8 °F 88% 29.92 in 6.2 mi SE 3.5 mph - N/A   Scattered Clouds
5:20 AM 64.4 °F 60.8 °F 88% 29.92 in 6.2 mi SSE 5.8 mph - N/A   Scattered Clouds
5:50 AM 64.4 °F 59.0 °F 83% 29.89 in 6.2 mi SSE 5.8 mph - N/A   Scattered Clouds
6:20 AM 64.4 °F 60.8 °F 88% 29.89 in 6.2 mi SSE 4.6 mph - N/A   Scattered Clouds
6:50 AM 64.4 °F 60.8 °F 88% 29.89 in 6.2 mi South 3.5 mph - N/A   Scattered Clouds
7:20 AM 62.6 °F 59.0 °F 88% 29.89 in 6.2 mi Variable 1.2 mph - N/A   Scattered Clouds
7:50 AM 66.2 °F 60.8 °F 83% 29.89 in 6.2 mi SE 6.9 mph - N/A   Scattered Clouds
8:20 AM 66.2 °F 60.8 °F 83% 29.89 in 6.2 mi SSE 5.8 mph - N/A   Scattered Clouds
8:50 AM 66.2 °F 60.8 °F 83% 29.92 in 6.2 mi South 5.8 mph - N/A   Mostly Cloudy
9:20 AM 66.2 °F 60.8 °F 83% 29.92 in 6.2 mi SSE 4.6 mph - N/A Rain Light Rain
9:50 AM 66.2 °F 62.6 °F 88% 29.92 in 3.1 mi WSW 9.2 mph - N/A Rain Rain
10:20 AM 66.2 °F 62.6 °F 88% 29.92 in 5.0 mi SW 5.8 mph - N/A   Mostly Cloudy
10:50 AM 66.2 °F 64.4 °F 94% 29.92 in 5.0 mi SSW 6.9 mph - N/A   Mostly Cloudy
11:20 AM 68.0 °F 62.6 °F 83% 29.92 in 5.0 mi SW 11.5 mph - N/A   Scattered Clouds
11:50 AM 68.0 °F 62.6 °F 83% 29.89 in 5.0 mi SSW 9.2 mph - N/A   Mostly Cloudy
12:20 PM 69.8 °F 62.6 °F 78% 29.89 in 6.2 mi WSW 11.5 mph - N/A   Scattered Clouds
12:50 PM 69.8 °F 60.8 °F 73% 29.89 in 6.2 mi SW 13.8 mph 25.3 mph N/A   Scattered Clouds
1:20 PM 69.8 °F 59.0 °F 68% 29.89 in 6.2 mi WSW 16.1 mph - N/A   Scattered Clouds
1:50 PM 68.0 °F 57.2 °F 68% 29.89 in 6.2 mi WSW 13.8 mph - N/A   Scattered Clouds
2:20 PM 68.0 °F 57.2 °F 68% 29.89 in 6.2 mi WSW 12.7 mph - N/A   Scattered Clouds
2:50 PM 68.0 °F 57.2 °F 68% 29.89 in 6.2 mi WSW 13.8 mph - N/A   Scattered Clouds
3:20 PM 68.0 °F 55.4 °F 64% 29.89 in 6.2 mi SW 10.4 mph - N/A   Partly Cloudy
3:50 PM 68.0 °F 57.2 °F 68% 29.89 in 6.2 mi SW 10.4 mph - N/A   Partly Cloudy
4:20 PM 66.2 °F 53.6 °F 64% 29.92 in 6.2 mi WSW 8.1 mph - N/A   Partly Cloudy
4:50 PM 64.4 °F 55.4 °F 73% 29.89 in 6.2 mi WSW 9.2 mph - N/A   Partly Cloudy
5:20 PM 64.4 °F 55.4 °F 73% 29.92 in 6.2 mi West 5.8 mph - N/A   Partly Cloudy
5:50 PM 64.4 °F 53.6 °F 68% 29.92 in 6.2 mi West 4.6 mph - N/A   Partly Cloudy
6:20 PM 62.6 °F 53.6 °F 72% 29.92 in - SSW 4.6 mph - N/A   Clear
6:50 PM 59.0 °F 51.8 °F 77% 29.92 in - Variable 2.3 mph - N/A   Clear
7:20 PM 60.8 °F 51.8 °F 72% 29.92 in 6.2 mi SSE 3.5 mph - N/A   Partly Cloudy
7:50 PM 59.0 °F 51.8 °F 77% 29.92 in 6.2 mi Variable 2.3 mph - N/A   Partly Cloudy
8:20 PM 59.0 °F 50.0 °F 72% 29.92 in 6.2 mi Variable 2.3 mph - N/A   Partly Cloudy
8:50 PM 59.0 °F 51.8 °F 77% 29.92 in - NNW 3.5 mph - N/A   Clear
9:20 PM 60.8 °F 51.8 °F 72% 29.95 in 6.2 mi SW 6.9 mph - N/A   Partly Cloudy
9:50 PM 60.8 °F 50.0 °F 68% 29.95 in 6.2 mi SSW 11.5 mph - N/A   Partly Cloudy
10:20 PM 59.0 °F 50.0 °F 72% 29.95 in 6.2 mi SSE 3.5 mph - N/A   Partly Cloudy
10:50 PM 59.0 °F 50.0 °F 72% 29.95 in 6.2 mi SE 3.5 mph - N/A   Partly Cloudy
11:20 PM 57.2 °F 50.0 °F 77% 29.95 in 6.2 mi East 5.8 mph - N/A   Partly Cloudy
11:50 PM 57.2 °F 50.0 °F 77% 29.92 in 6.2 mi SE 3.5 mph - N/A   Partly Cloudy